EW9824 Weather Reports


Display with metric or nautical units.
time (UTC)temp
F
wind
direction
speed
MPH
gust
MPH
rain 1hr
in
rain 24hr
in
rain mn
in
humidity
%
barometer
mb
20260901230035 67 317 7.0 17.0 0.00 0.00 0.00 58 1012.6
20260901224532 68 309 9.0 20.0 0.00 0.00 0.00 56 1012.4
20260901223031 68 318 9.0 22.0 0.00 0.00 0.00 56 1012.4
20260901220030 69 321 10.0 22.0 0.00 0.00 0.00 56 1012.1
20260901214606 69 316 9.0 20.0 0.00 0.00 0.00 56 1011.9
20260901213029 69 323 7.0 20.0 0.00 0.00 0.00 56 1012.1
20260901204531 69 307 8.0 18.0 0.00 0.00 0.00 57 1012.4
20260901203107 68 329 9.0 19.0 0.00 0.00 0.00 57 1012.5
20260901201528 68 327 8.0 19.0 0.00 0.00 0.00 57 1012.6
20260901200034 67 330 7.0 15.0 0.00 0.00 0.00 58 1012.9
20260901194533 67 329 8.0 19.0 0.00 0.00 0.00 58 1013.1
20260901191531 67 334 7.0 17.0 0.00 0.00 0.00 60 1013.5
20260901190031 67 341 8.0 17.0 0.00 0.00 0.00 61 1013.5
20260901183029 65 348 6.0 13.0 0.00 0.00 0.00 63 1013.7
20260901180031 64 349 5.0 13.0 0.00 0.00 0.00 68 1013.9
20260901164604 59 29 4.0 8.0 0.00 0.00 0.00 77 1014.0
20260901163031 58 25 4.0 8.0 0.00 0.00 0.00 78 1013.9
20260901161533 57 8 3.0 8.0 0.00 0.00 0.00 80 1013.9
20260901160030 56 8 3.0 7.0 0.00 0.00 0.00 81 1013.7
20260901154528 56 25 4.0 9.0 0.00 0.00 0.00 82 1013.7
20260901151531 54 38 4.0 9.0 0.00 0.00 0.00 86 1013.6
20260901150107 52 36 4.0 8.0 0.00 0.00 0.00 88 1013.5
20260901144527 50 46 2.0 7.0 0.00 0.00 0.00 85 1013.4
20260901143030 50 143 0.0 2.0 0.00 0.00 0.00 83 1013.3
20260901141531 50 181 1.0 5.0 0.00 0.00 0.00 83 1013.2
20260901134530 47 170 1.0 4.0 0.00 0.00 0.00 87 1012.9
20260901133029 47 173 1.0 4.0 0.00 0.00 0.00 86 1012.8
20260901131530 47 180 1.0 4.0 0.00 0.00 0.00 85 1012.7
20260901130029 47 168 2.0 4.0 0.00 0.00 0.00 84 1012.6
20260901124531 48 189 2.0 4.0 0.00 0.00 0.00 83 1012.5
20260901121533 49 178 2.0 5.0 0.00 0.00 0.00 80 1012.5
20260901120030 49 162 2.0 4.0 0.00 0.00 0.00 80 1012.4
20260901113030 49 180 2.0 4.0 0.00 0.00 0.00 78 1012.5
20260901111532 50 168 2.0 6.0 0.00 0.00 0.00 77 1012.4
20260901104609 49 167 2.0 4.0 0.00 0.00 0.00 76 1012.5
20260901103031 50 180 2.0 4.0 0.00 0.00 0.00 74 1012.6
20260901100108 51 158 2.0 5.0 0.00 0.00 0.00 71 1012.6
20260901094529 51 166 1.0 4.0 0.00 0.00 0.00 71 1012.5
20260901093029 50 162 2.0 4.0 0.00 0.00 0.00 72 1012.5
20260901091607 50 170 2.0 6.0 0.00 0.00 0.00 72 1012.5
20260901090030 50 179 3.0 5.0 0.00 0.00 0.00 72 1012.4
20260901084602 50 149 2.0 4.0 0.00 0.00 0.00 71 1012.4
20260901083029 51 164 2.0 3.0 0.00 0.00 0.00 69 1012.6
20260901080030 52 162 2.0 4.0 0.00 0.00 0.00 68 1012.6
20260901073031 53 150 2.0 4.0 0.00 0.00 0.00 63 1012.4
20260901064531 55 153 3.0 6.0 0.00 0.00 0.00 58 1012.6
20260901063031 56 163 3.0 7.0 0.00 0.00 0.00 57 1012.7
20260901061530 57 154 3.0 7.0 0.00 0.00 0.00 55 1012.9
20260901054532 57 154 4.0 6.0 0.00 0.00 0.00 57 1012.9
20260901053031 57 156 3.0 5.0 0.00 0.00 0.00 58 1012.9
20260901050032 57 171 2.0 6.0 0.00 0.00 0.00 59 1012.9
20260901044532 59 138 2.0 4.0 0.00 0.00 0.00 57 1012.9
20260901043030 60 170 4.0 7.0 0.00 0.00 0.00 55 1012.7
20260901040030 60 158 4.0 7.0 0.00 0.00 0.00 59 1012.5
20260901034533 62 167 3.0 6.0 0.00 0.00 0.00 59 1012.5
20260901033033 65 167 2.0 4.0 0.00 0.00 0.00 53 1012.2
20260901031606 66 168 3.0 9.0 0.00 0.00 0.00 53 1012.2
20260901030033 66 167 4.0 6.0 0.00 0.00 0.00 54 1012.1
20260901023102 67 178 5.0 7.0 0.00 0.00 0.00 55 1011.9
20260901021607 68 178 4.0 6.0 0.00 0.00 0.00 53 1011.8
20260901020031 70 183 2.0 5.0 0.00 0.00 0.00 46 1011.8
20260901014529 71 171 4.0 7.0 0.00 0.00 0.00 44 1011.8
20260901013105 74 224 3.0 7.0 0.00 0.00 0.00 38 1011.7
20260901011531 76 250 5.0 10.0 0.00 0.00 0.00 36 1011.7
20260901010028 77 242 6.0 11.0 0.00 0.00 0.00 37 1011.7
20260901004529 78 252 4.0 8.0 0.00 0.00 0.00 39 1011.8
20260901003033 78 264 2.0 8.0 0.00 0.00 0.00 39 1011.8
20260901001530 79 238 3.0 7.0 0.00 0.00 0.00 38 1011.9
20260901000030 81 218 3.0 7.0 0.00 0.00 0.00 37 1012.0
20260831234530 80 234 0.0 5.0 0.00 0.00 0.00 35 1012.0
20260831233027 81 249 4.0 8.0 0.00 0.00 0.00 33 1012.1